Weather History for KLTS - August, 2013

Change the Weather History Date:

Thursday, August 29, 2013

  Actual Average Record
Temperature  
Mean Temperature 84 °F -  
Max Temperature 102 °F 91 °F 102 °F (1999)
Min Temperature 69 °F 68 °F 60 °F (2012)
Cooling Degree Days 20    
Growing Degree Days 34 (Base 50)    
Moisture  
Dew Point 59 °F    
Average Humidity 45    
Maximum Humidity 75    
Minimum Humidity 22    
Precipitation  
Precipitation 0.00 in - - ()
Sea Level Pressure  
Sea Level Pressure 29.99 in    
Wind  
Wind Speed 7 mph (SSE)    
Max Wind Speed 15 mph    
Max Gust Speed 21 mph    
Visibility 10 miles    
Events      
Averages and records for this station are not official NWS values.
T = Trace of Precipitation, MM = Missing Value Source: NWS Daily Summary

Daily Weather History Graph

Daily Weather History Graph

Search for Another Location

Airport or City:

Trip Planner

Search our weather history database for the weather conditions in past years. The results will help you decide how hot, cold, wet, or windy it might be!

Date:

Astronomy

Aug. 29, 2013 Rise Set
Actual Time 7:08 AM CDT 8:07 PM CDT
Civil Twilight 6:42 AM CDT 8:32 PM CDT
Nautical Twilight 6:11 AM CDT 9:03 PM CDT
Astronomical Twilight 5:39 AM CDT 9:35 PM CDT
Moon 1:08 AM CDT (8/29) 3:29 PM CDT (8/29)
Length of Visible Light 13h 50m
Length of Day
12h 58m
Last Quarter, 38% of the Moon is Illuminated
Aug 29
Last Quarter
Sep 5
New
Sep 12
First Quarter
Sep 19
Full
Sep 26
Last Quarter

Hourly Weather History & Observations

Time (CDT) Temp. Heat Index Dew Point Humidity Pressure Visibility Wind Dir Wind Speed Gust Speed Precip Events Conditions
12:58 AM 75.9 °F - 61.3 °F 60% 29.99 in 10.0 mi SE 5.8 mph - N/A   Clear
1:58 AM 75.0 °F - 61.5 °F 63% 30.00 in 10.0 mi South 5.8 mph - N/A   Clear
2:58 AM 73.2 °F - 61.7 °F 67% 30.00 in 10.0 mi ESE 4.6 mph - N/A   Clear
3:58 AM 70.9 °F - 61.3 °F 72% 30.00 in 10.0 mi East 3.5 mph - N/A   Clear
4:58 AM 70.0 °F - 61.2 °F 73% 30.00 in 10.0 mi SE 4.6 mph - N/A   Clear
5:58 AM 69.1 °F - 61.0 °F 75% 30.01 in 10.0 mi SE 3.5 mph - N/A   Clear
6:58 AM 69.8 °F - 60.8 °F 73% 30.02 in 10.0 mi SE 2.3 mph - N/A   Clear
7:58 AM 70.9 °F - 61.2 °F 71% 30.04 in 10.0 mi ESE 2.3 mph - N/A   Clear
8:58 AM 79.5 °F - 60.8 °F 53% 30.06 in 10.0 mi SW 4.6 mph - N/A   Clear
9:58 AM 85.6 °F 85.2 °F 59.4 °F 41% 30.05 in 10.0 mi SW 8.1 mph - N/A   Clear
10:58 AM 91.0 °F 89.7 °F 57.4 °F 32% 30.05 in 10.0 mi WSW 11.5 mph - N/A   Clear
11:58 AM 95.5 °F 94.8 °F 58.3 °F 29% 30.04 in 10.0 mi SSW 10.4 mph 20.7 mph N/A   Clear
12:58 PM 97.2 °F 96.4 °F 57.6 °F 27% 30.02 in 10.0 mi South 11.5 mph 16.1 mph N/A   Clear
1:58 PM 98.8 °F 98.3 °F 57.9 °F 26% 29.99 in 10.0 mi SSW 15.0 mph 19.6 mph N/A   Partly Cloudy
2:58 PM 98.6 °F 97.2 °F 56.3 °F 24% 29.98 in 10.0 mi South 12.7 mph 19.6 mph N/A   Partly Cloudy
3:58 PM 100.4 °F 98.8 °F 55.4 °F 22% 29.95 in 10.0 mi South 12.7 mph 17.3 mph N/A   Partly Cloudy
4:58 PM 99.3 °F 98.2 °F 56.1 °F 24% 29.93 in 10.0 mi South 10.4 mph - N/A   Clear
5:58 PM 98.1 °F 96.4 °F 55.8 °F 24% 29.92 in 10.0 mi South 8.1 mph - N/A   Clear
6:58 PM 97.9 °F 96.2 °F 55.0 °F 24% 29.92 in 10.0 mi South 10.4 mph - N/A   Clear
7:58 PM 93.6 °F 91.8 °F 55.9 °F 28% 29.94 in 10.0 mi SSE 8.1 mph - N/A   Clear
8:58 PM 85.6 °F 84.5 °F 56.5 °F 37% 29.94 in 10.0 mi SE 6.9 mph - N/A   Clear
9:58 PM 82.0 °F 81.8 °F 57.2 °F 43% 29.95 in 10.0 mi SE 4.6 mph - N/A   Clear
10:58 PM 79.7 °F - 57.6 °F 47% 29.95 in 10.0 mi SE 3.5 mph - N/A   Clear
11:58 PM 78.4 °F - 57.6 °F 49% 29.95 in 10.0 mi SE 2.3 mph - N/A   Clear